SCP
0 0 0 0 0 0 0 0 0 0 -0 0 0 -0 -0 -0 -0 -1 -0 -0 -0 -0 -0 -0 -0 0 -0 0 0 -0 0 0 0 0 0 0 -0 0 0 0 0 0 0 0
0 0 0 0 0 0 0 0 0 0 -0 0 0 0 -0 -0 -0 -0 -0 -0 -0 -0 -0 -0 -0 0 -0 0 0 0 0 0 0 0 0 0 0 -0 -0 -0 -0 0 -0 -0
0 0 0 0 0 0 0 0 0 0 0 0 0 0 0 0 0 -0 -0 -0 -0 -0 -0 -0 -0 -0 -0 0 -0 0 0 0 0 0 -0 0 -0 -0 -0 -0 0 0 -0 -0
0 0 0 0 0 0 0 0 0 0 -0 0 0 0 0 0 -0 0 -0 0 -0 -0 -0 -0 -0 -0 -0 0 0 0 0 0 0 0 0 0 0 0 -0 -0 0 0 -0 -0
0 0 0 0 0 0 0 0 0 0 -0 0 0 0 0 0 0 -0 -0 -0 -0 -0 -0 -0 -0 -0 -0 -0 0 0 0 0 0 0 0 0 0 0 -0 -0 -0 -0 -0 -0
0 0 0 0 0 0 0 0 0 0 -0 0 -0 0 0 0 -0 -0 -0 -0 -0 -0 -0 -0 -0 -0 -0 -0 0 0 -0 0 0 0 0 0 0 0 -0 -0 -0 -0 -0 -0
0 0 0 0 0 -0 0 0 0 0 0 0 -0 -0 0 -0 -0 -0 -0 -0 -0 0 -0 -0 -0 -0 -0 -0 -0 -0 -0 -0 0 0 0 0 0 0 0 0 -0 0 -0 -0
0 0 0 0 0 0 0 0 0 0 0 0 -0 0 0 0 -0 -0 -0 -0 -0 -0 -0 -0 -0 -0 -0 -0 -0 -0 -0 -0 -0 0 0 0 0 0 -0 -0 0 0 0 0
0 0 0 0 0 0 0 0 0 0 0 0 0 0 0 0 0 0 -0 0 -0 0 -0 -0 -0 -0 -0 -0 -0 -0 -0 -0 -0 0 0 0 0 0 0 0 -0 -0 0 0
0 0 0 0 0 0 0 0 0 0 0 0 0 0 -0 0 0 -0 0 -0 -0 0 -0 -0 -0 -0 -0 -0 -0 -0 -0 -0 0 0 0 0 0 0 0 0 0 0 0 0
0 0 0 -0 0 0 0 0 0 0 0 0 0 -0 0 -0 -0 0 0 0 -0 -0 -0 -0 -0 -0 -0 -0 -0 -0 -0 -0 0 0 0 0 0 0 0 0 0 0 0 0
0 0 0 0 0 0 0 0 0 0 0 0 0 -0 0 0 0 0 0 0 0 -0 -0 -0 -0 -0 -0 -0 -0 -0 -0 -0 -0 0 0 0 0 0 0 0 0 0 0 -0
0 0 0 0 -0 0 0 0 0 0 0 0 0 0 -0 -0 -0 0 0 0 0 -0 -0 -0 -0 -0 -0 -0 -0 -0 -0 -0 0 0 0 0 0 0 0 -0 -0 -0 -0 -0
0 0 0 0 0 0 0 0 0 0 0 0 0 -0 -0 0 0 0 0 0 -0 -0 -0 -0 -0 -0 -0 -0 -0 -0 -0 0 0 0 0 0 0 0 0 -0 -0 -0 -0 -0
0 0 0 0 0 0 0 0 0 0 0 0 0 -0 -0 -0 0 0 0 0 0 0 0 -0 0 0 -0 -0 -0 0 0 0 0 0 0 0 0 0 0 0 0 -0 -0 -0
0 0 0 0 0 0 0 0 0 0 0 0 0 0 -0 0 0 0 0 0 0 0 0 0 0 0 0 0 -0 0 0 0 0 0 0 0 0 0 -0 -0 -0 -0 -0 -0
0 0 0 0 0 0 0 0 0 0 0 0 0 0 0 0 0 0 0 0 0 0 -0 -0 0 0 0 0 -0 0 0 0 1 1 1 0 0 -0 -0 -0 -0 -0 -0 -0
0 0 0 0 0 0 0 0 0 0 0 0 0 0 0 0 0 0 0 0 0 0 0 0 0 0 0 0 0 0 0 0 0 1 1 1 0 -0 -0 -0 -0 -0 -0 -1
0 0 0 0 0 0 0 0 0 0 0 0 0 0 0 0 0 0 0 0 0 0 0 0 0 0 0 1 1 0 0 0 1 1 0 1 0 0 0 -0 -0 -0 -0 -0
0 0 0 0 0 0 0 0 0 0 0 0 0 0 0 0 0 0 0 0 0 0 0 1 1 1 0 0 0 1 1 1 0 0 0 1 2 2 1 1 0 0 0 -0
0 0 0 0 0 0 0 0 0 0 0 0 0 0 0 0 0 0 0 0 0 0 0 0 1 1 1 1 0 1 1 1 1 1 1 2 2 2 2 2 2 2 2 1
0 0 0 0 0 0 0 0 0 0 0 0 0 0 0 0 0 0 0 0 0 0 0 0 0 1 2 3 2 1 1 0 1 1 2 2 3 3 4 4 4 4 3 3
0 0 0 0 0 0 0 0 0 0 0 0 0 0 0 0 0 0 0 0 0 0 0 0 0 0 1 2 5 4 6 5 4 2 1 2 2 3 4 4 5 5 5 5
0 0 0 0 0 0 0 0 0 0 0 0 0 0 0 0 0 0 0 0 0 0 0 0 0 0 0 1 3 5 5 5 4 5 3 3 2 3 4 5 6 7 8 7
-0 -0 0 0 0 0 0 0 0 0 0 0 0 0 0 0 0 0 0 0 0 0 0 0 0 0 0 0 1 2 3 2 2 2 3 3 2 3 4 3 5 7 6 4
0 0 0 0 0 0 0 0 0 0 0 0 0 0 0 0 0 0 0 0 0 0 0 0 0 0 0 0 0 1 2 1 1 1 1 2 4 3 1 0 0 0 0 0
Wind_Speed_500mb
39 22 37 48 32 10 11 14 19 15 19 45 36 40 52 68 56 63 65 74 79 86 89 93 88 94 86 84 75 82 91 80 73 67 66 66 59 56 47 37 32 27 24 21
9 41 37 15 20 22 30 20 27 30 29 15 45 44 47 45 55 77 74 75 81 76 81 90 85 95 99 97 92 89 91 82 75 62 59 72 71 61 54 46 41 35 30 27
39 13 36 31 31 33 32 31 29 18 15 12 45 24 35 21 30 50 54 81 96 101 92 97 97 97 104 102 99 96 92 83 75 65 56 53 67 67 61 58 52 45 34 30
32 43 37 40 42 41 35 37 36 27 16 14 16 17 33 38 40 30 61 71 74 87 86 94 104 103 109 108 103 104 98 88 79 72 65 59 67 73 72 60 57 51 40 34
44 43 47 44 55 39 38 21 31 33 11 3 27 9 16 41 41 37 56 79 74 80 96 87 111 107 111 113 109 112 104 94 86 79 72 68 65 67 60 53 46 46 48 38
32 39 41 50 35 38 27 22 21 22 8 18 41 14 13 38 61 56 68 82 90 79 93 104 89 103 109 116 113 118 110 100 90 84 77 75 71 62 62 56 50 45 42 38
39 47 46 28 38 25 32 14 17 9 15 18 23 10 16 62 65 66 66 89 98 85 90 99 92 95 109 118 122 122 113 105 95 87 82 80 74 63 60 58 55 48 47 46
32 38 50 35 30 36 24 31 12 19 10 22 11 15 13 51 87 99 98 106 113 87 83 103 96 107 112 120 118 122 116 108 98 89 82 80 76 68 65 61 57 58 53 46
18 40 16 52 43 36 28 33 20 10 2 6 9 11 9 17 28 56 74 71 72 78 86 103 95 106 105 119 122 120 117 109 101 93 85 81 79 75 72 66 61 60 52 53
9 19 29 54 33 44 46 17 20 8 22 9 11 11 18 17 21 36 44 76 98 100 92 100 96 105 112 124 127 122 116 112 103 96 90 85 82 80 77 71 65 60 61 53
22 9 21 5 30 53 11 35 13 13 12 17 7 18 14 21 23 23 35 84 94 91 102 106 105 109 119 119 125 124 117 110 105 100 94 88 87 84 84 79 72 66 59 61
19 10 13 26 25 5 50 14 24 19 19 7 9 26 11 21 24 30 35 83 93 102 117 114 110 109 109 108 115 122 118 110 99 92 91 87 84 85 85 85 80 71 69 67
17 6 16 16 9 5 11 27 17 12 13 20 22 20 8 16 17 43 58 69 98 113 110 107 101 104 105 111 114 119 116 110 93 89 88 88 85 81 82 82 81 78 74 73
23 9 19 15 12 19 8 22 17 33 18 20 22 23 16 27 29 21 43 64 102 107 113 106 102 106 108 118 121 118 114 107 97 90 87 85 81 80 76 73 75 76 74 75
4 15 13 35 51 49 47 24 26 24 24 27 22 16 18 19 22 14 39 64 77 95 102 106 105 106 108 108 113 114 111 104 96 93 89 83 77 75 71 72 71 72 76 76
9 10 23 34 33 33 34 15 13 30 21 13 15 16 18 12 25 12 32 58 69 91 103 108 108 113 114 112 115 115 111 102 97 94 89 79 76 76 76 73 72 71 72 75
9 7 12 12 17 12 7 15 3 16 20 22 14 18 5 5 16 23 32 51 54 68 98 109 107 110 119 116 111 109 107 101 97 92 86 84 80 77 75 72 73 73 71 68
14 13 8 10 15 12 11 39 30 34 35 37 20 12 17 28 52 74 56 71 71 59 49 66 81 85 95 99 106 102 96 95 94 90 84 83 80 75 71 71 72 72 72 71
19 7 8 4 7 4 17 31 22 15 25 39 34 6 35 53 87 51 60 59 75 80 77 71 55 66 64 62 76 87 87 86 87 90 85 82 82 78 75 76 71 64 66 68
14 21 13 8 4 7 27 52 75 14 24 43 45 38 12 28 28 8 53 62 68 68 68 71 72 71 56 35 53 66 76 82 84 86 87 84 81 81 80 74 72 68 71 73
8 9 7 8 4 9 52 72 41 21 7 36 54 52 54 34 24 35 58 67 66 64 61 57 54 53 46 42 37 32 67 77 85 84 84 88 86 83 79 76 76 79 81 81
3 5 9 13 11 10 54 30 21 17 41 43 52 58 49 49 55 58 59 60 57 57 58 56 51 43 38 31 28 30 23 12 32 51 82 83 87 86 81 81 79 79 81 84
8 5 3 5 4 8 13 24 28 38 38 49 58 55 46 49 52 51 48 51 53 52 49 49 48 44 39 35 26 20 15 11 5 5 20 44 59 71 76 76 73 74 75 78
14 37 5 13 10 12 29 30 28 43 53 58 56 54 44 37 36 39 39 42 43 42 43 38 35 37 34 28 22 21 13 4 6 12 18 24 33 45 56 65 69 70 73 75
16 9 22 11 5 33 16 17 38 79 77 73 54 47 54 45 34 38 38 39 40 38 36 35 34 30 26 18 15 10 6 7 12 19 25 31 37 47 48 54 63 70 73 72
33 13 7 7 34 38 55 70 60 69 83 77 64 55 42 41 33 31 33 38 42 40 38 35 32 28 23 19 12 10 11 16 23 29 36 38 39 44 54 59 66 74 75 73
Wind_Direction_500mb
196 193 206 213 210 233 250 216 251 264 203 195 191 170 183 179 189 178 185 191 194 196 198 205 204 200 201 208 209 208 203 202 202 206 208 205 204 199 198 201 213 215 226 231
158 218 217 192 210 210 236 242 253 268 269 171 189 183 182 176 190 180 182 190 195 196 199 207 211 207 204 206 209 209 206 205 206 211 210 210 210 208 210 204 216 215 222 230
209 233 210 201 224 220 222 227 243 233 286 304 160 166 159 197 208 203 206 199 189 193 195 205 208 205 204 208 209 211 208 208 209 213 211 211 214 216 214 209 213 219 216 226
226 236 198 212 220 209 221 225 240 248 247 253 186 168 196 179 212 215 211 223 200 195 191 202 206 207 208 208 210 213 213 210 213 214 214 211 208 210 212 211 212 220 221 226
223 200 219 216 218 205 224 218 233 241 229 260 258 117 207 184 200 217 222 221 213 203 197 196 204 207 210 208 212 211 213 213 217 220 222 218 216 216 216 214 209 214 223 229
233 241 210 228 227 222 206 213 248 241 185 242 253 158 181 185 206 209 220 218 215 212 206 200 203 204 206 209 212 210 211 214 218 222 226 224 221 220 218 214 211 212 218 224
232 236 237 223 220 223 218 153 223 256 227 230 243 183 217 200 209 204 206 211 213 223 210 201 198 194 195 202 208 208 210 214 218 222 227 226 224 222 220 217 216 213 214 220
216 234 217 217 214 206 214 207 163 209 196 229 163 211 249 194 206 216 206 202 204 209 202 204 203 197 200 206 210 210 211 214 218 222 226 227 227 225 225 222 221 223 225 225
331 234 248 222 218 195 203 213 184 143 244 150 225 230 284 203 191 206 209 210 217 214 205 203 203 200 200 208 213 213 213 215 219 223 225 226 227 227 226 225 225 224 224 226
304 292 236 231 213 223 210 166 188 177 223 236 276 219 214 225 208 206 198 197 210 210 205 201 202 200 201 211 216 217 218 217 220 223 225 226 228 229 229 228 226 224 222 224
317 259 299 268 215 215 195 207 198 158 157 216 224 255 191 223 227 186 195 195 201 201 197 199 201 202 204 208 212 217 218 219 221 223 225 227 228 229 233 232 230 228 225 223
319 285 283 240 237 269 214 192 197 203 213 208 179 254 213 218 223 231 211 197 198 197 195 200 200 200 200 202 208 215 218 217 220 223 226 228 231 230 230 233 234 231 228 225
348 344 314 305 21 276 208 218 208 159 140 205 211 245 233 251 241 236 219 179 193 194 198 199 195 197 199 200 206 215 219 219 220 220 223 227 229 231 232 233 235 236 234 231
5 261 254 278 296 329 257 226 203 192 197 192 214 257 294 287 295 282 187 175 183 189 191 191 194 194 200 204 208 214 218 220 220 222 223 226 229 232 233 233 234 237 236 235
355 269 263 268 277 272 260 257 208 195 186 195 212 205 245 263 270 234 168 164 167 178 182 186 190 192 200 203 205 214 217 218 221 222 224 226 228 232 236 238 236 236 238 238
232 267 305 290 257 220 239 249 260 209 180 179 167 225 227 264 288 108 146 153 167 178 182 186 189 191 199 205 210 214 216 218 220 222 225 227 229 231 233 237 241 241 240 241
202 256 346 269 320 186 78 342 335 203 184 183 183 226 185 107 358 11 109 121 155 179 184 186 189 191 200 208 213 213 215 217 220 223 226 228 230 232 233 235 238 242 242 242
209 243 208 268 316 148 127 34 29 77 42 14 340 301 114 103 72 52 59 90 95 143 165 186 190 193 199 205 210 214 213 215 219 224 227 230 232 233 235 236 239 241 244 248
206 243 269 291 271 226 22 11 340 343 37 9 346 103 124 107 76 41 57 71 88 95 97 107 168 194 193 200 210 212 212 218 221 225 229 232 234 236 238 240 241 244 245 248
217 247 231 307 335 52 9 333 332 141 39 358 11 20 46 113 83 23 58 70 78 88 94 99 105 114 141 153 207 217 222 223 227 232 233 234 239 242 243 245 247 250 252 254
268 264 241 244 72 65 359 347 20 64 27 13 20 30 41 62 75 70 74 70 71 74 80 96 107 106 103 108 110 172 218 227 234 236 238 242 243 245 250 252 254 254 254 256
29 14 2 336 51 30 350 348 61 334 8 17 26 29 35 53 60 57 58 60 67 69 69 76 93 98 97 105 110 97 102 172 227 242 245 247 248 249 250 251 254 254 255 257
48 88 297 21 159 237 6 315 301 11 9 0 4 357 20 38 50 49 44 46 48 53 58 63 74 85 94 98 108 105 85 82 62 227 231 242 249 249 251 254 256 255 255 255
24 11 41 317 167 329 309 299 303 350 345 340 355 1 5 30 49 42 28 26 31 36 40 39 53 63 76 89 97 100 103 111 264 267 263 257 246 242 246 250 253 255 256 256
17 330 321 264 300 339 292 286 295 314 312 313 323 355 14 26 52 37 25 14 8 14 22 26 27 30 33 49 70 72 53 330 292 279 278 267 261 254 251 247 248 250 252 255
349 330 330 266 293 276 268 291 300 303 302 300 309 324 356 2 4 11 6 357 353 356 3 6 1 353 359 356 1 4 347 331 327 307 280 277 276 266 254 249 246 244 246 251
Wind_Speed_850mb
39 22 37 48 32 10 11 14 19 15 19 45 36 40 52 68 56 63 65 74 79 86 89 93 88 94 86 84 75 82 91 80 73 67 66 66 59 56 47 37 32 27 24 21
9 41 37 15 20 22 30 20 27 30 29 15 45 44 47 45 55 77 74 75 81 76 81 90 85 95 99 97 92 89 91 82 75 62 59 72 71 61 54 46 41 35 30 27
39 13 36 31 31 33 32 31 29 18 15 12 45 24 35 21 30 50 54 81 96 101 92 97 97 97 104 102 99 96 92 83 75 65 56 53 67 67 61 58 52 45 34 30
32 43 37 40 42 41 35 37 36 27 16 14 16 17 33 38 40 30 61 71 74 87 86 94 104 103 109 108 103 104 98 88 79 72 65 59 67 73 72 60 57 51 40 34
44 43 47 44 55 39 38 21 31 33 11 3 27 9 16 41 41 37 56 79 74 80 96 87 111 107 111 113 109 112 104 94 86 79 72 68 65 67 60 53 46 46 48 38
32 39 41 50 35 38 27 22 21 22 8 18 41 14 13 38 61 56 68 82 90 79 93 104 89 103 109 116 113 118 110 100 90 84 77 75 71 62 62 56 50 45 42 38
39 47 46 28 38 25 32 14 17 9 15 18 23 10 16 62 65 66 66 89 98 85 90 99 92 95 109 118 122 122 113 105 95 87 82 80 74 63 60 58 55 48 47 46
32 38 50 35 30 36 24 31 12 19 10 22 11 15 13 51 87 99 98 106 113 87 83 103 96 107 112 120 118 122 116 108 98 89 82 80 76 68 65 61 57 58 53 46
18 40 16 52 43 36 28 33 20 10 2 6 9 11 9 17 28 56 74 71 72 78 86 103 95 106 105 119 122 120 117 109 101 93 85 81 79 75 72 66 61 60 52 53
9 19 29 54 33 44 46 17 20 8 22 9 11 11 18 17 21 36 44 76 98 100 92 100 96 105 112 124 127 122 116 112 103 96 90 85 82 80 77 71 65 60 61 53
22 9 21 5 30 53 11 35 13 13 12 17 7 18 14 21 23 23 35 84 94 91 102 106 105 109 119 119 125 124 117 110 105 100 94 88 87 84 84 79 72 66 59 61
19 10 13 26 25 5 50 14 24 19 19 7 9 26 11 21 24 30 35 83 93 102 117 114 110 109 109 108 115 122 118 110 99 92 91 87 84 85 85 85 80 71 69 67
17 6 16 16 9 5 11 27 17 12 13 20 22 20 8 16 17 43 58 69 98 113 110 107 101 104 105 111 114 119 116 110 93 89 88 88 85 81 82 82 81 78 74 73
23 9 19 15 12 19 8 22 17 33 18 20 22 23 16 27 29 21 43 64 102 107 113 106 102 106 108 118 121 118 114 107 97 90 87 85 81 80 76 73 75 76 74 75
4 15 13 35 51 49 47 24 26 24 24 27 22 16 18 19 22 14 39 64 77 95 102 106 105 106 108 108 113 114 111 104 96 93 89 83 77 75 71 72 71 72 76 76
9 10 23 34 33 33 34 15 13 30 21 13 15 16 18 12 25 12 32 58 69 91 103 108 108 113 114 112 115 115 111 102 97 94 89 79 76 76 76 73 72 71 72 75
9 7 12 12 17 12 7 15 3 16 20 22 14 18 5 5 16 23 32 51 54 68 98 109 107 110 119 116 111 109 107 101 97 92 86 84 80 77 75 72 73 73 71 68
14 13 8 10 15 12 11 39 30 34 35 37 20 12 17 28 52 74 56 71 71 59 49 66 81 85 95 99 106 102 96 95 94 90 84 83 80 75 71 71 72 72 72 71
19 7 8 4 7 4 17 31 22 15 25 39 34 6 35 53 87 51 60 59 75 80 77 71 55 66 64 62 76 87 87 86 87 90 85 82 82 78 75 76 71 64 66 68
14 21 13 8 4 7 27 52 75 14 24 43 45 38 12 28 28 8 53 62 68 68 68 71 72 71 56 35 53 66 76 82 84 86 87 84 81 81 80 74 72 68 71 73
8 9 7 8 4 9 52 72 41 21 7 36 54 52 54 34 24 35 58 67 66 64 61 57 54 53 46 42 37 32 67 77 85 84 84 88 86 83 79 76 76 79 81 81
3 5 9 13 11 10 54 30 21 17 41 43 52 58 49 49 55 58 59 60 57 57 58 56 51 43 38 31 28 30 23 12 32 51 82 83 87 86 81 81 79 79 81 84
8 5 3 5 4 8 13 24 28 38 38 49 58 55 46 49 52 51 48 51 53 52 49 49 48 44 39 35 26 20 15 11 5 5 20 44 59 71 76 76 73 74 75 78
14 37 5 13 10 12 29 30 28 43 53 58 56 54 44 37 36 39 39 42 43 42 43 38 35 37 34 28 22 21 13 4 6 12 18 24 33 45 56 65 69 70 73 75
16 9 22 11 5 33 16 17 38 79 77 73 54 47 54 45 34 38 38 39 40 38 36 35 34 30 26 18 15 10 6 7 12 19 25 31 37 47 48 54 63 70 73 72
33 13 7 7 34 38 55 70 60 69 83 77 64 55 42 41 33 31 33 38 42 40 38 35 32 28 23 19 12 10 11 16 23 29 36 38 39 44 54 59 66 74 75 73
Wind_Direction_850mb
196 193 206 213 210 233 250 216 251 264 203 195 191 170 183 179 189 178 185 191 194 196 198 205 204 200 201 208 209 208 203 202 202 206 208 205 204 199 198 201 213 215 226 231
158 218 217 192 210 210 236 242 253 268 269 171 189 183 182 176 190 180 182 190 195 196 199 207 211 207 204 206 209 209 206 205 206 211 210 210 210 208 210 204 216 215 222 230
209 233 210 201 224 220 222 227 243 233 286 304 160 166 159 197 208 203 206 199 189 193 195 205 208 205 204 208 209 211 208 208 209 213 211 211 214 216 214 209 213 219 216 226
226 236 198 212 220 209 221 225 240 248 247 253 186 168 196 179 212 215 211 223 200 195 191 202 206 207 208 208 210 213 213 210 213 214 214 211 208 210 212 211 212 220 221 226
223 200 219 216 218 205 224 218 233 241 229 260 258 117 207 184 200 217 222 221 213 203 197 196 204 207 210 208 212 211 213 213 217 220 222 218 216 216 216 214 209 214 223 229
233 241 210 228 227 222 206 213 248 241 185 242 253 158 181 185 206 209 220 218 215 212 206 200 203 204 206 209 212 210 211 214 218 222 226 224 221 220 218 214 211 212 218 224
232 236 237 223 220 223 218 153 223 256 227 230 243 183 217 200 209 204 206 211 213 223 210 201 198 194 195 202 208 208 210 214 218 222 227 226 224 222 220 217 216 213 214 220
216 234 217 217 214 206 214 207 163 209 196 229 163 211 249 194 206 216 206 202 204 209 202 204 203 197 200 206 210 210 211 214 218 222 226 227 227 225 225 222 221 223 225 225
331 234 248 222 218 195 203 213 184 143 244 150 225 230 284 203 191 206 209 210 217 214 205 203 203 200 200 208 213 213 213 215 219 223 225 226 227 227 226 225 225 224 224 226
304 292 236 231 213 223 210 166 188 177 223 236 276 219 214 225 208 206 198 197 210 210 205 201 202 200 201 211 216 217 218 217 220 223 225 226 228 229 229 228 226 224 222 224
317 259 299 268 215 215 195 207 198 158 157 216 224 255 191 223 227 186 195 195 201 201 197 199 201 202 204 208 212 217 218 219 221 223 225 227 228 229 233 232 230 228 225 223
319 285 283 240 237 269 214 192 197 203 213 208 179 254 213 218 223 231 211 197 198 197 195 200 200 200 200 202 208 215 218 217 220 223 226 228 231 230 230 233 234 231 228 225
348 344 314 305 21 276 208 218 208 159 140 205 211 245 233 251 241 236 219 179 193 194 198 199 195 197 199 200 206 215 219 219 220 220 223 227 229 231 232 233 235 236 234 231
5 261 254 278 296 329 257 226 203 192 197 192 214 257 294 287 295 282 187 175 183 189 191 191 194 194 200 204 208 214 218 220 220 222 223 226 229 232 233 233 234 237 236 235
355 269 263 268 277 272 260 257 208 195 186 195 212 205 245 263 270 234 168 164 167 178 182 186 190 192 200 203 205 214 217 218 221 222 224 226 228 232 236 238 236 236 238 238
232 267 305 290 257 220 239 249 260 209 180 179 167 225 227 264 288 108 146 153 167 178 182 186 189 191 199 205 210 214 216 218 220 222 225 227 229 231 233 237 241 241 240 241
202 256 346 269 320 186 78 342 335 203 184 183 183 226 185 107 358 11 109 121 155 179 184 186 189 191 200 208 213 213 215 217 220 223 226 228 230 232 233 235 238 242 242 242
209 243 208 268 316 148 127 34 29 77 42 14 340 301 114 103 72 52 59 90 95 143 165 186 190 193 199 205 210 214 213 215 219 224 227 230 232 233 235 236 239 241 244 248
206 243 269 291 271 226 22 11 340 343 37 9 346 103 124 107 76 41 57 71 88 95 97 107 168 194 193 200 210 212 212 218 221 225 229 232 234 236 238 240 241 244 245 248
217 247 231 307 335 52 9 333 332 141 39 358 11 20 46 113 83 23 58 70 78 88 94 99 105 114 141 153 207 217 222 223 227 232 233 234 239 242 243 245 247 250 252 254
268 264 241 244 72 65 359 347 20 64 27 13 20 30 41 62 75 70 74 70 71 74 80 96 107 106 103 108 110 172 218 227 234 236 238 242 243 245 250 252 254 254 254 256
29 14 2 336 51 30 350 348 61 334 8 17 26 29 35 53 60 57 58 60 67 69 69 76 93 98 97 105 110 97 102 172 227 242 245 247 248 249 250 251 254 254 255 257
48 88 297 21 159 237 6 315 301 11 9 0 4 357 20 38 50 49 44 46 48 53 58 63 74 85 94 98 108 105 85 82 62 227 231 242 249 249 251 254 256 255 255 255
24 11 41 317 167 329 309 299 303 350 345 340 355 1 5 30 49 42 28 26 31 36 40 39 53 63 76 89 97 100 103 111 264 267 263 257 246 242 246 250 253 255 256 256
17 330 321 264 300 339 292 286 295 314 312 313 323 355 14 26 52 37 25 14 8 14 22 26 27 30 33 49 70 72 53 330 292 279 278 267 261 254 251 247 248 250 252 255
349 330 330 266 293 276 268 291 300 303 302 300 309 324 356 2 4 11 6 357 353 356 3 6 1 353 359 356 1 4 347 331 327 307 280 277 276 266 254 249 246 244 246 251